Regional Weather Roundup
Issued by NWS

Home | Current Version | Previous Version | Graphics & Text | Print | Product List | Glossary On
Versions: 1 2 3 4 5 6 7 8 9 10 11 12 13 14 15 16 17 18 19 20 21 22 23 24 25 26 27 28 29 30 31 32 33 34 35 36 37 38 39 40 41 42 43 44 45 46 47 48 49 50
000
ASUS43 KOAX 230302
RWRNE

WEATHER ROUNDUP FOR NEBRASKA
NATIONAL WEATHER SERVICE OMAHA NE
1000 PM CDT SAT JUL 22 2017

NOTES: SATELLITE DATA IS BEING USED TO AUGMENT CLOUD COVER ABOVE
       12000 FEET.
       "FAIR" INDICATES FEW OR NO CLOUDS BELOW 12,000 FEET WITH NO
       SIGNIFICANT WEATHER AND/OR OBSTRUCTIONS TO VISIBILITY.


NEZ001>004-019>022-054>056-230400-
NEBRASKA PANHANDLE

CITY           SKY/WX    TMP DP  RH WIND       PRES   REMARKS
SCOTTSBLUFF    CLEAR     77  54  44 S6        30.09R
ALLIANCE       CLEAR     69  45  41 S10       30.09R
CHADRON        MOCLDY    78  53  41 SE9       30.05R
GORDON         FAIR      71  61  72 CALM      30.08R HAZE
KIMBALL        CLEAR     71  52  52 S13       30.16R
SIDNEY         CLEAR     73  48  41 S10       30.14R
$$

NEZ057>060-069>072-079>082-230400-
SOUTHWEST NEBRASKA

CITY           SKY/WX    TMP DP  RH WIND       PRES   REMARKS
NORTH PLATTE   CLEAR     69  59  70 CALM      30.03R
IMPERIAL       CLEAR     72  53  51 SE5       30.07R
LEXINGTON      CLEAR     71  67  88 CALM      30.01R
MCCOOK         CLEAR     73  60  63 NE6       30.03R
OGALLALA       CLOUDY    72  52  50 CALM      30.07R
$$

NEZ005>010-023>029-035>040-094-230400-
NORTH CENTRAL NEBRASKA

CITY           SKY/WX    TMP DP  RH WIND       PRES   REMARKS
VALENTINE      CLEAR     83  45  26 W6        29.99R
AINSWORTH      PTCLDY    73  59  60 S7        30.00R
BROKEN BOW     CLEAR     68  64  87 N3        30.01R
O`NEILL        CLEAR     72  65  77 S7        29.98R
ORD            CLEAR     71  68  90 N3        29.98R
THEDFORD       CLOUDY    78  51  39 SW8       30.04R
$$

NEZ041-046>049-061>064-073>077-083>087-230400-
SOUTH CENTRAL NEBRASKA

CITY           SKY/WX    TMP DP  RH WIND       PRES   REMARKS
GRAND ISLAND   CLOUDY    73  71  93 N3        29.98R
AURORA         PTCLDY    73  71  92 SE3       29.97R
HASTINGS       LGT RAIN  79  69  71 SE6       29.99R
HEBRON         MOCLDY    78  69  74 S6        29.97S
HOLDREGE       MOCLDY    75  71  87 SE6       30.02R
KEARNEY        MOCLDY    74  71  91 CALM      30.02R
YORK           CLOUDY    75  73  94 E3        29.96R
$$

NEZ011>018-030>034-042>045-230400-
NORTHEAST NEBRASKA

CITY           SKY/WX    TMP DP  RH WIND       PRES   REMARKS
NORFOLK        CLEAR     71  66  84 CALM      29.94S
ALBION         CLEAR     70  67  89 CALM      29.98R
BLAIR          CLOUDY    76  73  89 CALM      29.94R
COLUMBUS       MOCLDY    72  67  84 SE5       29.97R
FREMONT        CLOUDY    77  70  78 CALM      29.94R
TEKAMAH        PTCLDY    73  70  90 S3        29.93R
WAYNE          FAIR      68  68  99 CALM      29.94R
$$

NEZ050>053-065>068-078-088>093-230400-
SOUTHEAST NEBRASKA

CITY           SKY/WX    TMP DP  RH WIND       PRES   REMARKS
LINCOLN        CLOUDY    79  73  82 CALM      29.94R
OMAHA EPPLEY   CLOUDY    79  73  82 NW14      29.91S
BEATRICE       CLOUDY    82  76  83 CALM      29.96R
FALLS CITY     CLOUDY    81  77  88 NW3       29.88F
NEBRASKA CITY  CLOUDY    80  80  98 N5        29.94R HX  90
PLATTSMOUTH    CLOUDY    80  71  74 SE5       29.93R
$$

NEZ044-045-051>053-067-230400-
OMAHA AREA

CITY           SKY/WX    TMP DP  RH WIND       PRES   REMARKS
OMAHA EPPLEY   CLOUDY    79  73  82 NW14      29.91S
BLAIR          CLOUDY    76  73  89 CALM      29.94R
FREMONT        CLOUDY    77  70  78 CALM      29.94R
MILLARD        CLOUDY    82  73  74 N8        29.91F
PLATTSMOUTH    CLOUDY    80  71  74 SE5       29.93R
WAHOO          FAIR      74  72  91 N3        29.93S
$$




USA.gov is the U.S. government's official web portal to all federal, state and local government web resources and services.